Presure
346 363 467 315 263 236 248 222 233 249 257 254 170 233 167 210 194 206 218 201 188 223 223 143 231 196 168 141 146 152 142 140 134 183 200 166 148 132 96 89 173 186 150 152 115 153 153 219 191 226 237 235 227 233
248 359 395 306 276 276 248 261 236 255 153 268 238 243 229 208 230 180 227 207 214 131 222 133 225 221 143 145 207 202 196 193 196 185 169 179 207 202 182 173 156 214 140 166 155 153 142 142 219 226 172 235 233 235
229 251 451 326 270 242 232 200 262 252 203 266 224 175 217 214 223 211 225 212 216 136 219 148 221 228 212 133 164 198 199 223 191 163 144 195 184 182 167 179 175 136 176 182 141 166 123 136 188 224 214 218 207 231
243 248 279 330 300 269 261 258 224 250 183 189 205 190 200 216 216 211 217 188 227 182 170 208 157 132 141 138 157 141 203 200 171 165 183 186 185 181 183 171 128 146 138 148 202 147 148 141 217 194 231 224 227 234
251 240 275 318 292 271 276 157 237 239 152 214 191 243 196 231 202 209 217 234 220 230 220 222 140 137 142 175 223 219 167 200 199 196 189 176 179 152 164 177 182 173 157 164 135 126 145 213 207 199 218 194 144 218
255 238 266 507 321 298 294 255 211 226 247 254 210 169 162 233 227 197 139 227 214 221 222 232 160 135 200 144 148 229 217 207 193 196 152 187 181 179 181 167 175 161 163 178 211 96 179 170 153 213 218 196 215 213
246 255 251 323 437 298 268 282 187 245 207 231 233 232 163 214 173 189 186 201 232 220 143 170 214 218 209 224 209 216 230 206 207 187 153 163 119 173 169 145 160 163 152 144 149 151 214 170 206 209 212 214 222 214
235 258 240 304 465 324 298 265 211 231 228 158 163 182 194 199 203 229 187 222 161 231 135 178 224 223 222 198 194 226 229 193 207 110 193 189 178 175 164 173 172 193 183 147 142 167 193 217 219 221 209 220 220 235
229 272 233 297 312 467 305 295 237 213 252 189 205 166 225 193 180 183 188 222 217 154 145 218 201 225 207 223 215 227 155 174 126 196 185 162 191 180 176 179 170 174 132 140 142 209 201 147 220 221 215 213 225 232
232 241 266 307 330 473 319 282 278 241 252 248 172 217 167 179 198 233 189 214 163 209 189 135 202 220 212 220 224 223 221 229 207 134 195 187 175 176 170 191 176 140 172 142 142 137 141 218 222 221 197 218 213 219
247 248 230 301 339 445 508 297 268 185 250 248 222 188 236 212 168 218 175 209 152 196 155 172 234 237 227 218 221 228 221 227 190 196 187 174 176 182 167 196 166 129 167 127 167 163 153 223 222 223 215 214 245 233
241 237 297 371 332 401 475 307 277 263 143 242 196 164 179 229 180 223 202 187 186 215 168 219 191 133 142 224 230 219 217 225 163 179 187 179 180 189 169 168 165 141 161 148 179 218 165 220 231 211 214 199 246 245
228 250 283 366 324 297 450 332 302 285 211 180 240 203 178 190 199 188 168 187 197 181 231 235 237 120 221 134 223 133 217 226 226 181 188 177 175 186 154 165 145 137 173 121 174 223 202 207 235 223 215 243 223 238
240 258 309 358 322 399 431 451 311 251 223 252 251 173 172 186 216 177 175 185 192 209 200 233 242 239 126 227 232 231 226 228 185 178 182 173 181 196 154 148 139 162 144 150 196 204 209 213 232 223 218 246 230 268
248 292 373 349 319 400 417 475 308 276 239 248 258 240 191 230 211 194 216 179 176 197 207 211 187 211 220 226 217 229 226 205 198 185 192 178 177 185 165 168 135 179 155 152 192 176 219 218 228 215 217 243 244 254
271 336 360 349 295 413 406 462 459 288 269 261 265 245 173 173 219 187 195 180 167 195 200 201 196 230 224 206 213 197 205 187 226 197 190 183 167 172 165 139 175 167 164 217 158 207 211 230 225 230 237 258 255 271
267 361 360 320 288 415 397 440 538 302 285 226 266 252 229 161 223 175 210 203 185 161 191 205 204 194 210 224 227 230 243 203 215 187 136 196 123 205 155 152 170 161 178 218 156 188 215 232 239 216 237 268 275 269
395 348 338 293 352 404 393 422 565 327 298 231 258 258 241 237 178 176 212 197 191 165 187 192 187 198 198 213 176 190 194 189 196 176 197 180 127 182 141 146 161 162 173 194 217 217 235 228 240 212 233 262 247 262
354 371 318 286 399 396 399 429 547 380 293 264 251 240 237 236 201 175 203 192 178 189 192 179 186 212 199 196 192 194 182 191 200 193 170 138 125 183 131 163 163 148 177 188 168 232 236 225 245 248 252 262 273 332
354 335 301 401 389 378 412 451 447 386 284 269 251 257 242 227 241 244 180 206 166 189 176 189 187 192 197 191 214 206 201 205 205 206 199 127 126 195 129 160 187 143 192 213 223 234 234 230 258 252 247 297 259 391
346 307 278 385 376 373 402 469 437 384 287 263 246 258 244 237 244 236 176 193 210 197 189 184 184 176 198 191 183 203 196 189 120 188 193 135 124 143 148 175 152 157 178 218 234 236 225 227 206 252 257 244 294 379
316 294 370 370 369 374 399 452 411 385 283 266 234 255 250 235 244 233 168 218 202 203 180 200 173 180 182 193 191 206 198 176 136 186 133 162 197 135 153 157 209 218 207 222 230 244 249 255 248 237 291 265 390 365
281 349 355 377 365 370 394 452 395 382 280 253 241 232 252 240 161 245 168 178 189 205 214 179 177 182 193 178 167 187 189 174 176 170 182 160 136 149 172 185 185 199 190 232 235 232 244 250 266 264 246 333 378 363
350 354 356 374 366 367 392 525 390 330 288 255 258 229 238 235 239 241 237 227 210 207 206 202 181 166 182 208 179 126 190 183 127 183 192 161 150 162 212 151 205 223 224 234 251 240 247 241 225 268 259 392 371 365
367 372 383 398 376 372 391 529 388 305 284 260 249 230 232 225 159 231 238 204 165 214 174 172 176 182 167 167 175 172 182 180 205 137 162 202 215 213 155 222 214 231 238 227 234 213 230 258 269 249 360 382 365 364
383 401 398 382 359 372 477 523 394 294 272 261 241 236 238 240 194 236 231 211 154 220 224 180 167 174 179 188 181 173 169 192 135 171 133 159 202 185 201 212 235 229 245 239 256 259 217 231 242 289 392 375 361 358
406 400 381 362 360 381 545 477 337 282 263 258 242 235 240 231 229 234 234 234 209 170 227 210 163 166 170 168 183 196 187 141 157 140 144 210 188 195 201 234 222 240 244 242 232 251 274 237 252 327 383 369 361 352
381 364 345 348 367 541 488 361 314 279 265 254 243 247 232 227 218 226 226 228 197 170 171 168 219 195 161 161 192 195 131 155 190 175 188 219 170 229 230 227 239 245 251 246 259 231 239 245 257 390 375 363 358 344
346 350 346 359 529 500 355 321 300 274 259 253 225 210 228 229 222 220 215 219 225 221 226 224 183 215 173 168 193 138 154 212 209 215 213 158 227 229 228 239 239 244 261 254 215 231 253 283 315 384 366 352 356 338
344 342 361 508 486 407 320 301 281 268 258 252 229 231 241 224 222 222 228 230 224 224 220 219 203 224 143 162 177 151 152 170 181 172 189 231 220 227 239 249 252 247 261 223 234 257 244 278 394 375 360 353 349 341
337 355 460 485 400 328 298 285 274 266 255 242 214 221 221 216 216 221 224 225 222 221 202 208 215 180 137 222 226 221 223 223 146 201 229 225 230 239 252 241 259 254 234 250 253 244 281 370 386 369 355 356 344 369
356 398 514 385 308 296 286 278 271 265 257 246 216 221 223 211 219 222 207 221 225 219 221 224 136 226 221 213 217 225 200 192 230 228 230 233 246 250 241 255 239 234 258 269 251 286 267 395 375 359 346 356 344 394
428 504 372 296 291 280 276 272 268 260 255 229 184 239 227 234 220 223 223 224 213 145 217 217 219 148 219 218 153 144 220 225 231 244 238 244 243 236 237 248 242 263 235 264 258 276 413 385 366 357 359 344 392 381
Wind_Speed
62 63 15 33 16 7 14 11 5 15 35 45 27 34 24 31 21 16 21 13 16 18 17 24 12 14 16 18 19 19 18 17 18 9 18 13 24 10 27 19 15 30 26 17 18 34 36 46 39 52 59 56 54 57
93 73 10 28 32 42 22 37 13 34 24 48 39 44 38 14 34 16 27 12 22 15 16 16 10 11 19 16 6 0 4 7 8 11 14 17 24 26 24 18 20 42 39 25 26 29 46 48 54 55 53 62 65 67
74 93 51 42 20 18 16 8 41 35 7 46 9 29 32 24 28 18 24 13 15 22 15 22 10 8 9 14 14 3 1 6 8 17 21 18 18 22 22 28 26 29 32 37 44 36 36 48 55 62 62 65 63 72
81 96 86 47 45 31 23 41 22 43 21 27 14 32 13 31 28 20 25 19 23 17 14 16 24 11 20 19 12 23 3 4 14 11 13 17 19 24 25 27 32 30 40 33 46 38 40 56 61 59 67 68 72 75
87 68 104 29 42 31 42 17 40 36 28 37 19 41 16 37 17 19 23 30 20 22 16 15 21 19 23 19 11 9 18 4 7 9 11 19 21 23 27 32 36 36 27 38 47 48 53 59 62 64 70 56 44 69
93 64 95 28 53 60 56 50 28 29 50 48 38 32 29 37 35 10 16 28 20 19 16 17 15 13 15 26 26 15 13 8 6 9 24 15 20 25 29 36 36 28 28 49 57 17 51 59 55 71 76 67 82 73
104 82 66 54 26 54 32 53 36 50 23 47 44 43 30 20 27 22 10 11 28 19 29 24 16 14 14 14 19 16 19 9 12 12 25 20 18 26 34 24 37 37 22 32 49 41 64 61 72 75 78 83 89 84
97 91 59 85 27 58 70 49 33 44 37 37 35 35 34 18 31 36 12 29 22 29 21 19 20 18 15 15 22 22 22 15 14 13 16 18 23 29 36 39 43 46 50 26 39 57 61 69 73 77 79 87 89 102
78 107 60 81 35 26 72 67 50 41 59 42 48 36 46 27 26 31 15 30 26 19 27 20 20 20 20 16 20 25 21 25 26 13 16 24 23 28 34 37 43 45 30 36 41 63 70 57 78 81 84 88 94 98
89 96 106 88 40 25 77 59 69 49 62 62 45 42 38 34 28 38 23 28 22 26 16 18 25 19 15 20 25 27 28 30 18 30 18 20 30 33 37 41 44 30 53 34 42 51 52 77 82 85 70 98 89 92
102 97 62 46 39 27 20 71 61 39 63 66 50 47 55 42 34 39 27 30 20 15 21 31 30 31 25 25 29 30 32 34 14 15 18 28 30 31 39 44 47 31 43 51 56 55 61 83 86 88 88 93 111 107
103 83 105 38 39 29 23 72 69 72 34 65 48 38 44 55 35 44 35 26 22 28 27 29 30 18 20 27 28 32 34 37 25 22 23 29 32 34 41 45 50 41 48 40 67 77 69 83 90 86 94 66 113 114
90 117 91 39 40 39 25 84 88 87 47 51 70 57 46 47 45 34 40 27 26 16 38 34 30 24 27 26 28 24 38 41 40 24 27 33 37 36 38 48 31 38 57 45 67 80 78 85 93 93 100 109 95 108
124 117 95 39 41 31 29 41 90 67 65 76 75 54 48 49 51 43 39 30 27 30 25 27 34 31 25 28 34 38 42 43 25 30 30 39 35 43 41 43 33 58 53 50 72 77 83 88 97 96 100 116 102 120
125 99 42 44 41 31 32 30 89 78 70 76 77 74 47 61 53 50 51 37 34 30 28 26 25 26 30 32 35 42 44 35 34 31 38 38 39 40 45 47 37 59 54 57 74 75 89 94 97 100 93 119 108 120
108 71 49 48 44 32 35 32 64 84 80 79 78 75 60 53 66 49 50 40 45 33 32 29 27 30 32 31 35 33 37 34 43 39 36 39 44 45 51 35 59 69 65 78 67 84 89 98 99 106 114 119 120 123
113 58 55 53 47 35 36 36 46 96 92 64 78 79 72 43 66 51 55 49 39 40 29 33 34 31 35 37 43 48 45 38 42 35 26 47 29 57 44 50 64 62 61 81 71 82 94 99 104 99 102 122 119 120
54 63 59 54 41 38 38 42 52 101 95 68 79 82 81 76 52 53 61 45 41 44 36 35 34 36 37 39 36 35 40 39 44 36 50 45 29 46 34 45 67 64 60 77 88 93 99 96 110 83 102 119 116 118
66 54 63 56 40 42 43 39 56 86 91 87 80 77 76 71 61 52 53 48 48 42 40 41 38 41 43 41 38 42 39 42 51 45 41 29 32 57 37 55 70 47 77 78 75 96 100 100 114 114 110 117 116 93
68 64 61 37 39 40 42 38 65 79 92 93 84 86 79 68 72 73 57 58 47 46 47 43 42 46 51 42 47 49 51 55 56 59 54 29 32 58 39 67 62 45 74 89 94 98 100 104 123 113 118 127 115 66
69 65 56 35 41 41 40 36 71 83 98 92 80 88 80 74 74 72 57 59 60 54 47 45 45 46 53 43 45 54 50 50 25 47 50 31 32 37 50 71 56 53 79 91 99 103 96 103 78 114 120 111 108 68
70 63 37 39 41 42 39 34 82 84 99 95 78 85 84 73 75 72 51 61 57 58 49 53 51 49 51 49 49 54 53 44 30 48 29 51 65 36 56 58 76 87 87 95 95 105 108 109 108 109 124 116 65 68
63 49 41 44 46 43 40 40 87 89 101 88 84 76 85 78 46 75 53 60 58 63 61 55 54 54 54 49 43 50 50 48 49 48 49 52 32 49 68 72 73 82 81 97 102 100 107 107 118 116 110 89 64 66
56 52 50 51 50 46 40 65 91 97 106 91 92 75 75 73 74 72 68 63 57 66 63 61 55 38 51 62 53 24 54 54 27 52 59 55 49 67 79 58 77 93 93 97 107 105 103 101 94 116 114 60 64 65
60 58 56 56 52 43 40 72 94 99 104 95 85 76 75 72 46 65 69 56 47 68 58 55 56 56 47 44 51 47 52 53 73 32 57 71 82 81 60 88 88 95 100 92 98 87 94 113 119 109 79 61 64 64
61 57 51 51 46 40 46 73 95 100 104 100 82 79 78 76 64 72 68 61 34 64 64 60 42 53 56 59 54 49 47 61 32 58 34 50 65 59 78 81 94 94 102 101 115 104 91 97 106 127 59 61 62 62
57 54 47 44 36 36 63 68 97 104 105 100 83 79 80 72 66 69 71 70 63 53 64 67 35 43 46 44 57 65 58 36 54 36 44 76 57 75 74 94 85 100 106 97 93 104 117 103 106 96 58 60 60 60
47 43 41 38 34 51 59 96 100 104 106 98 83 84 72 67 63 64 62 62 59 55 54 45 55 65 36 39 64 67 32 51 70 51 73 86 66 92 92 92 97 106 100 97 105 96 99 103 109 55 57 58 58 59
44 41 36 31 48 49 91 94 96 101 101 97 74 63 65 65 66 66 67 69 64 62 62 60 44 67 50 51 66 36 50 74 77 83 80 55 92 90 90 97 97 96 107 103 82 94 104 126 107 52 55 59 57 58
42 34 33 44 50 67 94 92 94 100 100 96 76 74 75 68 70 71 70 68 64 61 59 61 56 64 36 43 55 45 41 52 66 56 72 89 82 86 96 103 104 90 107 82 91 102 95 122 50 53 56 57 56 57
37 32 42 48 62 89 90 91 94 98 97 87 66 70 72 72 68 67 65 62 62 63 56 60 66 50 29 71 73 75 78 80 42 73 88 84 87 96 101 90 101 97 85 93 94 95 124 68 49 52 56 57 57 56
33 33 48 61 89 88 88 89 90 91 92 88 66 72 71 58 62 64 55 61 64 62 64 66 25 68 69 68 71 76 66 63 83 84 86 87 95 98 86 100 80 81 100 108 95 120 104 45 50 54 58 56 57 54
36 47 67 87 87 85 84 83 83 83 83 76 52 78 69 74 64 66 64 62 56 30 64 66 68 39 71 73 37 36 77 80 86 92 87 92 89 78 85 82 82 104 83 100 97 119 44 46 51 54 54 56 55 51
Wind_Direction
359 355 328 158 167 280 210 47 341 205 169 157 157 166 181 153 160 150 158 146 179 163 149 225 151 194 223 261 259 248 276 294 309 344 23 308 285 357 305 339 348 4 330 5 298 339 325 5 359 6 7 2 358 357
1 358 277 183 183 176 237 186 279 172 181 160 166 155 163 177 161 154 165 179 182 234 159 245 166 185 250 266 155 158 49 8 15 348 320 349 12 7 348 345 273 17 293 324 324 322 329 325 359 1 342 359 356 353
349 2 356 184 238 214 285 144 188 185 145 167 201 187 176 182 173 194 173 188 187 237 173 235 181 201 219 288 266 195 336 26 340 296 300 9 345 345 327 346 343 286 348 349 303 332 337 318 348 355 350 349 351 350
350 357 357 201 202 229 216 204 198 195 230 206 203 191 185 177 172 189 184 213 194 214 230 198 229 266 264 277 283 285 231 320 298 356 337 349 346 344 342 336 311 327 290 323 358 308 323 310 352 343 354 348 347 346
354 347 358 225 229 265 215 247 229 229 210 197 225 182 184 179 181 205 200 187 202 202 205 204 244 262 263 269 257 252 283 280 321 345 342 322 327 325 322 338 338 338 301 318 301 328 304 351 345 341 347 345 336 344
349 337 356 320 222 218 215 204 239 213 200 198 199 202 217 186 190 215 232 202 213 210 212 205 251 275 260 274 277 271 273 280 309 332 308 337 327 325 334 325 333 335 332 339 349 275 341 343 321 344 344 345 341 341
345 338 341 336 264 229 241 210 225 204 208 205 210 203 221 216 209 193 188 224 217 229 239 238 236 242 260 264 276 271 276 285 298 314 311 320 285 322 316 302 319 330 297 287 321 326 345 341 341 340 341 341 340 341
343 342 320 340 299 223 220 221 222 223 237 227 222 201 217 215 199 205 222 212 241 227 249 248 237 243 247 266 279 273 278 288 295 269 320 329 315 311 317 320 324 341 332 301 303 336 337 343 340 342 339 339 339 337
335 342 318 338 305 274 217 215 220 223 216 215 215 225 212 225 190 206 215 217 222 249 252 246 261 256 261 266 267 276 292 293 299 308 304 304 333 316 314 323 319 325 319 297 305 340 338 330 338 339 335 334 339 337
334 339 336 336 300 283 215 225 215 223 214 211 219 228 229 202 215 212 234 223 229 236 257 269 259 263 254 276 276 274 280 287 291 306 321 318 299 306 309 330 323 304 326 303 306 311 325 340 337 337 336 333 338 341
335 334 315 309 296 278 272 220 215 215 212 213 226 217 216 217 225 220 205 228 246 240 266 261 251 257 263 265 272 275 277 285 281 323 309 288 297 309 309 326 317 321 327 315 328 325 333 338 338 337 336 333 337 336
335 326 332 306 295 279 279 215 215 214 233 213 220 232 214 218 218 221 232 229 225 234 257 244 257 259 255 263 272 272 277 282 288 279 305 294 299 317 309 314 316 309 324 328 326 336 334 336 338 334 333 340 336 332
330 329 325 303 294 289 263 212 214 213 228 229 219 214 218 223 217 208 229 223 235 221 239 242 250 264 254 280 269 293 273 279 283 280 301 290 296 310 313 314 310 308 326 320 332 335 334 332 337 335 329 337 338 334
327 324 325 299 292 269 251 226 213 214 224 213 212 224 227 226 221 216 223 212 230 238 240 259 255 260 263 267 273 272 273 278 284 278 286 290 308 316 318 310 314 323 322 335 330 334 333 334 336 333 330 335 335 334
323 321 308 299 293 271 246 251 214 213 217 216 212 217 216 220 216 224 227 215 239 235 245 252 254 256 263 268 273 274 277 284 297 282 298 288 296 309 312 314 305 325 330 341 327 332 334 334 337 330 333 332 335 332
319 314 305 301 291 258 246 252 213 213 212 215 211 212 227 229 220 218 230 219 241 236 241 246 251 266 264 277 282 270 278 274 292 294 299 291 300 304 311 306 316 317 323 329 338 331 333 335 333 332 333 334 331 331
312 307 306 300 287 253 244 246 213 211 212 215 212 209 219 233 222 230 224 226 225 258 236 246 250 256 262 271 275 278 281 283 285 292 303 301 301 306 315 321 314 322 327 328 336 331 331 334 335 327 336 337 335 334
302 306 304 292 276 253 243 240 210 211 209 211 212 212 214 219 228 232 224 223 225 254 234 241 246 257 261 268 263 273 277 282 286 287 294 295 297 310 323 333 313 326 333 324 332 332 332 334 336 335 334 331 331 335
304 300 299 290 254 253 249 244 211 207 205 206 211 215 215 215 225 232 217 224 234 231 237 242 246 248 261 263 268 271 278 282 284 292 290 292 302 309 317 320 313 331 321 322 332 331 334 334 338 332 333 328 332 332
300 300 294 253 260 260 254 253 210 202 203 206 209 214 214 215 219 221 230 222 250 233 243 244 250 256 258 264 262 267 273 277 283 288 296 294 306 310 316 312 322 325 327 328 330 331 334 333 335 332 327 339 334 330
295 294 289 257 257 258 252 246 205 200 201 206 209 213 212 217 220 219 234 234 224 230 237 241 246 258 259 265 268 270 279 282 296 290 301 309 306 322 308 309 335 327 317 330 331 334 330 325 340 328 328 333 334 330
290 290 272 258 256 255 250 243 199 199 199 204 209 212 212 215 220 221 237 226 223 231 240 241 259 253 263 263 268 271 277 282 289 290 308 301 304 312 318 323 324 321 324 330 332 333 338 334 332 329 337 333 332 332
285 273 269 255 253 253 248 250 196 199 199 206 209 209 213 215 239 224 238 238 230 229 233 247 255 254 258 262 279 273 278 280 284 289 291 302 312 323 310 320 324 324 323 328 331 331 335 331 334 331 331 333 333 333
272 269 266 260 248 248 245 217 195 196 199 205 208 211 211 214 220 223 224 225 234 228 232 239 251 276 262 261 270 278 279 284 298 292 298 298 318 304 312 330 326 321 326 326 327 330 330 325 329 331 330 336 335 335
260 258 256 249 247 247 244 214 195 196 200 205 207 211 211 214 237 220 226 233 251 228 251 257 259 258 273 280 277 284 280 288 286 313 296 299 299 306 321 312 321 320 324 325 329 322 329 332 334 329 334 336 336 337
248 242 239 236 240 244 240 211 191 196 200 205 207 210 211 214 228 221 224 231 244 235 238 251 269 268 266 267 274 281 285 286 304 299 312 316 310 313 311 321 317 325 322 328 328 332 327 328 329 339 335 335 336 337
231 229 228 236 238 245 209 205 185 194 199 206 208 209 212 214 216 221 226 230 236 253 240 242 271 273 277 277 276 275 282 299 291 307 316 299 311 309 319 314 322 321 323 327 327 332 335 326 328 336 334 335 337 337
216 217 222 226 240 209 202 183 187 193 198 205 207 211 211 214 220 224 227 231 242 252 256 263 256 254 274 276 274 275 296 287 287 298 296 297 303 305 311 318 319 321 326 328 331 321 327 328 331 333 334 334 337 337
212 216 218 230 210 202 181 183 187 192 199 205 205 214 211 215 221 226 230 233 238 244 247 252 258 253 261 276 273 282 287 282 284 289 295 316 302 308 315 316 319 324 323 325 324 322 329 335 335 331 333 334 336 336
209 208 224 204 196 190 179 183 187 194 199 204 204 208 214 216 221 226 231 236 240 246 249 253 258 262 280 273 276 291 296 285 291 299 298 299 310 312 313 314 316 324 327 325 320 330 326 337 329 331 332 333 335 337
200 216 214 195 187 174 179 184 189 194 199 202 207 208 213 219 223 228 233 237 242 246 253 256 258 264 289 272 276 278 282 286 304 299 297 306 308 311 311 318 320 324 322 329 327 325 336 333 329 331 332 333 333 338
211 224 204 177 171 177 181 186 190 194 199 203 210 212 215 225 226 230 235 238 243 247 252 257 282 266 269 273 277 281 286 292 292 296 302 305 307 309 317 318 324 325 331 327 326 333 335 327 329 331 332 333 333 337
214 205 173 173 175 179 184 188 192 195 199 204 208 212 217 222 227 231 236 242 247 267 254 258 262 270 270 274 295 290 289 292 295 297 302 304 309 317 311 321 327 327 320 330 328 336 328 327 330 331 332 332 335 334